Location: Newark
(15.5700°N, 75.3700°E)
Time: 06:09:16
(UTC+00:00)

ISS - Pass Details

Date: 20 November 2019
Orbit: 411 x 421 km, 51.6° (Epoch: 07 December)

Event Time Altitude Azimuth Distance (km) Brightness Sun altitude
Rises 12:39:03 0° 233° (SW) 2,334 1.8 -4.0°
Reaches altitude 10° 12:41:15 10° 243° (WSW) 1,475 0.9 -4.5°
Maximum altitude 12:44:18 34° 309° (NW) 707 -2.2 -5.2°
Drops below altitude 10° 12:47:21 10° 16° (NNE) 1,483 -1.3 -5.9°
Enters shadow 12:49:30 - 26° (NNE) 2,322 -0.4 -6.4°
